TimeCDT,TemperatureF,Dew PointF,Humidity,Sea Level PressureIn,VisibilityMPH,Wind Direction,Wind SpeedMPH,Gust SpeedMPH,PrecipitationIn,Events,Conditions,WindDirDegrees,DateUTC
12:15 AM,37.0,31.1,79,30.08,10.0,NNE,3.5,-,N/A,,Scattered Clouds,20,2013-03-17 05:15:00
12:35 AM,37.0,30.9,79,30.09,10.0,North,4.6,-,N/A,,Scattered Clouds,10,2013-03-17 05:35:00
12:55 AM,36.7,30.7,79,30.09,10.0,North,6.9,-,N/A,,Overcast,360,2013-03-17 05:55:00
1:15 AM,36.5,30.4,78,30.09,10.0,North,5.8,-,N/A,,Mostly Cloudy,10,2013-03-17 06:15:00
1:35 AM,36.5,30.2,78,30.10,10.0,North,6.9,-,N/A,,Overcast,360,2013-03-17 06:35:00
1:55 AM,36.1,29.7,77,30.09,10.0,North,6.9,-,N/A,,Scattered Clouds,10,2013-03-17 06:55:00
2:15 AM,36.0,29.7,78,30.09,10.0,North,8.1,-,N/A,,Clear,10,2013-03-17 07:15:00
2:35 AM,35.8,29.7,78,30.10,10.0,North,8.1,-,N/A,,Mostly Cloudy,10,2013-03-17 07:35:00
2:55 AM,35.6,29.3,78,30.10,10.0,NNE,5.8,-,N/A,,Overcast,20,2013-03-17 07:55:00
3:15 AM,35.4,29.5,79,30.10,10.0,NNE,5.8,-,N/A,,Overcast,20,2013-03-17 08:15:00
3:35 AM,35.2,29.8,81,30.10,10.0,NE,5.8,-,N/A,,Overcast,40,2013-03-17 08:35:00
3:55 AM,35.1,30.2,82,30.11,10.0,NE,5.8,-,N/A,,Overcast,40,2013-03-17 08:55:00
4:15 AM,34.7,29.8,82,30.10,10.0,ENE,10.4,-,N/A,,Overcast,70,2013-03-17 09:15:00
4:35 AM,34.2,29.7,84,30.10,10.0,NE,8.1,-,N/A,,Overcast,50,2013-03-17 09:35:00
4:55 AM,33.8,29.3,84,30.08,10.0,ENE,6.9,17.3,N/A,,Overcast,60,2013-03-17 09:55:00
5:15 AM,33.8,28.9,82,30.10,10.0,ENE,9.2,-,N/A,,Overcast,60,2013-03-17 10:15:00
5:35 AM,33.3,28.6,83,30.11,10.0,ENE,6.9,-,N/A,,Overcast,60,2013-03-17 10:35:00
5:55 AM,33.1,27.3,79,30.12,10.0,ENE,12.7,-,N/A,,Overcast,70,2013-03-17 10:55:00
6:15 AM,32.9,27.1,79,30.12,10.0,ENE,8.1,-,N/A,,Overcast,60,2013-03-17 11:15:00
6:35 AM,32.9,27.0,79,30.12,10.0,ENE,9.2,17.3,N/A,,Overcast,70,2013-03-17 11:35:00
6:55 AM,32.9,27.3,80,30.12,10.0,ENE,9.2,-,N/A,,Overcast,60,2013-03-17 11:55:00
7:15 AM,32.4,27.3,82,30.12,10.0,ENE,9.2,-,N/A,,Overcast,70,2013-03-17 12:15:00
7:35 AM,32.2,26.1,78,30.13,10.0,ENE,11.5,17.3,N/A,,Mostly Cloudy,70,2013-03-17 12:35:00
7:55 AM,32.2,26.1,78,30.13,10.0,NE,11.5,-,N/A,,Mostly Cloudy,50,2013-03-17 12:55:00
8:15 AM,32.0,26.1,79,30.12,10.0,NE,11.5,-,N/A,,Overcast,50,2013-03-17 13:15:00
8:35 AM,32.2,25.7,77,30.12,10.0,ENE,11.5,17.3,N/A,,Scattered Clouds,60,2013-03-17 13:35:00
8:55 AM,32.5,25.7,76,30.13,10.0,East,9.2,17.3,N/A,,Scattered Clouds,80,2013-03-17 13:55:00
9:15 AM,32.9,25.9,75,30.13,10.0,ENE,15.0,19.6,N/A,,Mostly Cloudy,60,2013-03-17 14:15:00
9:35 AM,32.9,26.2,76,30.12,10.0,ENE,12.7,18.4,N/A,,Overcast,60,2013-03-17 14:35:00
9:55 AM,33.3,26.4,76,30.12,10.0,ENE,13.8,-,N/A,,Overcast,70,2013-03-17 14:55:00
10:15 AM,33.6,26.8,76,30.12,10.0,East,11.5,19.6,N/A,,Overcast,80,2013-03-17 15:15:00
10:35 AM,33.8,27.3,77,30.12,10.0,ENE,12.7,18.4,N/A,,Overcast,70,2013-03-17 15:35:00
10:55 AM,34.0,27.9,78,30.12,10.0,ENE,13.8,-,N/A,,Overcast,70,2013-03-17 15:55:00
11:15 AM,34.5,28.2,78,30.11,10.0,East,10.4,19.6,N/A,,Overcast,80,2013-03-17 16:15:00
11:35 AM,35.1,28.4,77,30.10,10.0,ENE,15.0,-,N/A,,Overcast,60,2013-03-17 16:35:00
11:55 AM,35.6,28.2,75,30.09,10.0,ENE,13.8,19.6,N/A,,Overcast,70,2013-03-17 16:55:00
12:15 PM,36.0,28.6,75,30.08,10.0,ENE,15.0,19.6,N/A,,Overcast,60,2013-03-17 17:15:00
12:35 PM,36.0,28.8,75,30.08,10.0,ENE,12.7,20.7,N/A,,Overcast,70,2013-03-17 17:35:00
12:55 PM,37.0,29.1,73,30.06,10.0,East,11.5,17.3,N/A,,Mostly Cloudy,80,2013-03-17 17:55:00
1:15 PM,38.3,29.7,71,30.05,10.0,ENE,12.7,-,N/A,,Mostly Cloudy,60,2013-03-17 18:15:00
1:35 PM,37.9,29.3,71,30.04,10.0,ENE,13.8,20.7,N/A,,Overcast,70,2013-03-17 18:35:00
1:55 PM,39.2,29.5,68,30.03,10.0,East,12.7,20.7,N/A,,Overcast,90,2013-03-17 18:55:00
2:15 PM,38.8,28.4,66,30.02,10.0,East,13.8,-,N/A,,Overcast,80,2013-03-17 19:15:00
2:35 PM,39.2,28.6,66,30.01,10.0,ENE,10.4,-,N/A,,Overcast,70,2013-03-17 19:35:00
2:55 PM,39.2,29.3,68,30.01,10.0,East,10.4,-,N/A,,Overcast,80,2013-03-17 19:55:00
3:15 PM,39.2,28.6,66,29.99,10.0,ENE,11.5,-,N/A,,Overcast,70,2013-03-17 20:15:00
3:35 PM,39.2,28.9,67,29.99,10.0,East,9.2,16.1,N/A,,Overcast,90,2013-03-17 20:35:00
3:55 PM,38.7,29.7,70,29.97,7.0,East,11.5,-,N/A,,Overcast,80,2013-03-17 20:55:00
4:15 PM,37.9,30.9,76,29.97,10.0,East,10.4,18.4,N/A,Rain,Light Rain,80,2013-03-17 21:15:00
4:35 PM,37.6,31.1,77,29.97,10.0,East,10.4,17.3,N/A,,Overcast,90,2013-03-17 21:35:00
4:55 PM,37.6,31.1,77,29.95,10.0,ENE,11.5,19.6,N/A,,Overcast,70,2013-03-17 21:55:00
5:15 PM,37.6,31.8,80,29.95,10.0,East,11.5,-,N/A,Rain,Light Rain,90,2013-03-17 22:15:00
5:35 PM,36.7,32.0,83,29.95,10.0,East,9.2,-,N/A,Rain,Rain,80,2013-03-17 22:35:00
5:55 PM,36.5,32.0,84,29.96,10.0,ENE,8.1,-,N/A,Rain,Light Rain,70,2013-03-17 22:55:00
6:15 PM,35.6,32.2,87,29.95,3.0,ENE,8.1,-,N/A,,Overcast,70,2013-03-17 23:15:00
6:35 PM,34.7,32.4,91,29.93,1.5,ENE,8.1,-,0.01,Snow,Light Snow,70,2013-03-17 23:35:00
6:55 PM,34.2,32.5,94,29.92,1.8,ENE,9.2,-,0.02,Snow,Light Snow,70,2013-03-17 23:55:00
7:15 PM,34.2,32.9,95,29.92,4.0,ENE,9.2,-,N/A,Snow,Light Snow,70,2013-03-18 00:15:00
7:35 PM,34.3,32.9,94,29.92,5.0,ENE,6.9,-,N/A,Snow,Light Snow,70,2013-03-18 00:35:00
7:55 PM,34.7,33.1,94,29.90,7.0,ENE,9.2,-,N/A,Rain,Light Rain,60,2013-03-18 00:55:00
8:15 PM,34.7,33.1,94,29.90,5.0,East,10.4,-,0.01,Snow,Light Snow,80,2013-03-18 01:15:00
8:35 PM,34.7,32.9,93,29.89,3.0,ENE,10.4,17.3,0.01,Snow,Light Snow,70,2013-03-18 01:35:00
8:55 PM,34.7,32.9,93,29.89,4.0,ENE,13.8,19.6,0.02,Snow,Light Snow,70,2013-03-18 01:55:00
9:15 PM,34.5,32.9,94,29.89,4.0,ENE,10.4,16.1,N/A,Snow,Light Snow,60,2013-03-18 02:15:00
9:35 PM,34.7,32.9,93,29.89,7.0,ENE,12.7,-,N/A,Rain,Light Rain,60,2013-03-18 02:35:00
9:55 PM,34.7,32.9,93,29.89,7.0,ENE,10.4,-,N/A,,Overcast,60,2013-03-18 02:55:00
10:15 PM,34.7,32.9,93,29.87,5.0,ENE,11.5,18.4,N/A,Rain,Rain,70,2013-03-18 03:15:00
10:35 PM,34.9,32.9,92,29.88,5.0,ENE,10.4,-,N/A,,Light Drizzle,60,2013-03-18 03:35:00
10:55 PM,34.9,32.9,92,29.87,5.0,ENE,9.2,16.1,N/A,Rain,Rain,70,2013-03-18 03:55:00
11:15 PM,34.9,32.9,92,29.86,4.0,ENE,12.7,18.4,0.01,Rain,Rain,60,2013-03-18 04:15:00
11:35 PM,34.7,32.9,93,29.84,5.0,ENE,13.8,-,0.02,Rain,Light Rain,70,2013-03-18 04:35:00
11:55 PM,34.7,32.9,93,29.83,5.0,ENE,12.7,18.4,0.02,Rain,Light Rain,70,2013-03-18 04:55:00